Flag for Comoros Weather past 2 weeks in Mutsamudu, Comoros

Now
82 °F

Passing clouds.


Feels Like: 89 °F
Forecast: 78 / 80 °F
Wind: 10 mph from Northwest

Location: Dzaoudzi / Pamanzi Mayotte

Current Time: Feb 2, 2015 at 12:16:46 AM

Latest Report: Feb 1, 2015 at 11:30 PM


Visibility: N/A

Pressure: 29.86 "Hg

Humidity: 79%

Dew point: 75 °F

Location of MutsamuduLocation

Historic Weather in Mutsamudu — Graph

°F

Mutsamudu temperature yesterday

Maximum temperature yesterday: 88 °F (at 11:00 AM)
Minimum temperature yesterday: 81 °F (at 12:30 AM)
Average temperature yesterday: 83 °F

Past Weeks' High & Low Weather Summary

 TemperatureHumidityPressure
High88 °F (Jan 18, 1:00 PM)94% (Jan 19, 1:00 AM)29.98 "Hg (Jan 19, 1:00 AM)
Low75 °F (Jan 19, 11:04 AM)59% (Jan 25, 1:00 PM)29.74 "Hg (Jan 18, 1:00 AM)
Average81 °F81%29.85 "Hg
* Reported Jan 17 11:00 PM — Feb 1 11:00 PM, Mutsamudu, Weather by CustomWeather, © 2014

Note: Actual official high and low records may vary slightly from our data, if they occured in-between our weather recording intervals... More about our weather records

Advertising

Mutsamudu weather history for previous 24 hours

 ConditionsComfort  
Time TempWeatherWind HumidityBarometerVisibility
11:00 PM
Feb 1
82 °FPassing clouds.12 mph74%29.86 "HgN/A
10:30 PM82 °FPassing clouds.13 mph79%29.86 "HgN/A
10:00 PM82 °FPassing clouds.13 mph79%29.86 "HgN/A
9:30 PM82 °FPartly cloudy.13 mph79%29.86 "HgN/A
9:00 PM82 °FPassing clouds.10 mph79%29.83 "HgN/A
8:30 PM82 °FPassing clouds.12 mph79%29.83 "HgN/A
8:00 PM82 °FPassing clouds.10 mph79%29.80 "HgN/A
7:30 PM82 °FPassing clouds.12 mph79%29.80 "HgN/A
7:00 PM82 °FPassing clouds.12 mph79%29.80 "HgN/A
6:30 PM82 °FPassing clouds.12 mph79%29.80 "HgN/A
6:00 PM84 °FPartly sunny.10 mph74%29.80 "HgN/A
5:30 PM84 °FScattered clouds.13 mph74%29.80 "HgN/A
5:00 PM84 °FScattered clouds.14 mph74%29.80 "HgN/A
4:30 PM86 °FScattered clouds.13 mph70%29.80 "HgN/A
4:00 PM86 °FScattered clouds.13 mph70%29.80 "HgN/A
3:30 PM86 °FScattered clouds.13 mph75%29.80 "HgN/A
3:00 PM86 °FScattered clouds.10 mph75%29.80 "HgN/A
2:30 PM86 °FBroken clouds.12 mph75%29.80 "HgN/A
2:00 PM86 °FBroken clouds.10 mph70%29.80 "HgN/A
1:30 PM88 °FBroken clouds.10 mph70%29.83 "HgN/A
1:00 PM86 °FBroken clouds.13 mph79%29.83 "HgN/A
12:30 PM86 °FPartly sunny.12 mph70%29.83 "HgN/A
12:00 PM86 °FPartly sunny.14 mph70%29.86 "HgN/A
11:30 AM86 °FScattered clouds.15 mph75%29.86 "HgN/A
11:00 AM88 °FScattered clouds.13 mph70%29.86 "HgN/A
10:30 AM86 °FScattered clouds.15 mph75%29.89 "HgN/A
10:00 AM84 °FScattered clouds.16 mph74%29.89 "HgN/A
9:30 AM84 °FScattered showers. Scattered clouds.14 mph74%29.89 "Hg6 mi
9:00 AM84 °FPartly sunny.14 mph79%29.89 "HgN/A
8:30 AM84 °FScattered clouds.12 mph79%29.89 "HgN/A
8:00 AM84 °FBroken clouds.9 mph79%29.89 "HgN/A
7:30 AM82 °FBroken clouds.12 mph79%29.86 "HgN/A
7:00 AM82 °FBroken clouds.9 mph79%29.86 "HgN/A
6:30 AM82 °FBroken clouds.9 mph79%29.86 "HgN/A
6:00 AM82 °FBroken clouds.9 mph79%29.86 "HgN/A
5:30 AM81 °FPassing clouds.9 mph84%29.86 "HgN/A
5:00 AM82 °FPassing clouds.9 mph74%29.83 "HgN/A
4:30 AM81 °FPassing clouds.12 mph79%29.86 "HgN/A
4:00 AM81 °FPassing clouds.8 mph79%29.86 "HgN/A
3:30 AM81 °FPassing clouds.9 mph79%29.86 "HgN/A
3:00 AM81 °FPassing clouds.8 mph79%29.83 "HgN/A
2:30 AM81 °FPassing clouds.8 mph79%29.86 "HgN/A
2:00 AM81 °FPassing clouds.7 mph84%29.86 "HgN/A
1:30 AM81 °FPartly cloudy.7 mph79%29.83 "HgN/A
1:00 AM81 °FPassing clouds.8 mph84%29.86 "HgN/A
12:30 AM81 °FPassing clouds.8 mph79%29.86 "HgN/A
Weather by CustomWeather, © 2014

See weather overviewHow to use our weather pages